Location: Buckland
(65.9785°N, 161.1281°W)
Time: 23:42:58
(UTC+00:00)

Transit 4A - Pass Details

Date: 29 November 2020
Orbit: 864 x 980 km, 66.8° (Epoch: 20 January)

Event Time Altitude Azimuth Distance (km) Brightness Sun altitude
Rises 19:59:51 0° 219° (SW) 3,661 11.2 -2.3°
Reaches altitude 10° 20:02:26 10° 215° (SW) 2,725 10.6 -2.2°
Maximum altitude 20:08:39 56° 139° (SE) 1,158 9.0 -1.8°
Drops below altitude 10° 20:14:54 10° 64° (ENE) 2,739 10.5 -1.5°
Sets 20:17:31 0° 60° (ENE) 3,682 11.0 -1.3°
